MEILLEURS TEMPS MONDIAUX

FEMININS 2007

 

retour page d'accueil

MEILLEURS TEMPS MASCULINS 2007

AUTRES STATISTIQUES

1 2:20:38 Chunxiu Zhou CHN 15 11 1978 1 London 22 04 2007
2 2:21:37 Mizuki Noguchi JPN 03 07 1978 1 Tokyo 18 11 2007
3 2:21:45 Gete Wami ETH 11 12 1974 2 London 22 04 2007
4 2:23:09 Paula Radcliffe GBR 17 12 1973 1 New York City, NY 04 11 2007
5 2:23:12 Yanan Wei CHN 06 12 1981 1 Seoul 18 03 2007
6 2:23:17 Gete Wami     1 Berlin 30 09 2007
7 2:23:31 Salina Jebet Kosgei KEN 16 11 1976 2 Tokyo 18 11 2007
8 2:23:32 Gete Wami     2 New York City, NY 04 11 2007
9 2:23:48 Yumiko Hara JPN 09 01 1982 1 Osaka 28 01 2007
10 2:23:55 Constantina Tomescu ROM 23 01 1970 3 London 22 04 2007
11 2:24:13 Salina Jebet Kosgei     4 London 22 04 2007
12 2:24:39 Mari Ozaki JPN 16 07 1975 2 Osaka 28 01 2007
13 2:24:43 Yuri Kano JPN 27 10 1978 3 Osaka 28 01 2007
14 2:24:46 Lornah Kiplagat NED 01 05 1974 5 London 22 04 2007
15 2:24:51 Irina Mikitenko GER 23 08 1972 2 Berlin 30 09 2007
16 2:25:07 Magarsa Assale Tafa ETH 1984 1 Paris 15 04 2007
17 2:25:08 Souad Aďt Salem ALG 06 01 1979 1 Roma 18 03 2007
18 2:25:36 Pamela Chepchumba KEN 08 03 1979 1 Milano 02 12 2007
19 2:25:41 Mara Yamauchi GBR 13 08 1973 6 London 22 04 2007
20 2:26:02 Yong-Ok Jong PRK 24 01 1981 1 Pyongyang 08 04 2007
21 2:26:08 Xiaolin Zhu CHN 20 02 1984 1 Xiamen 31 03 2007
22 2:26:13 Jelena Prokopcuka LAT 21 09 1976 3 New York City, NY 04 11 2007
23 2:26:27 Hellena Loshanyang Kiprop KEN 1976 3 Berlin 30 09 2007
24 2:26:37 Hiromi Ominami JPN 15 11 1975 1 Rotterdam 15 04 2007
25 2:26:46 Hellen Jemaiyo Kimutai KEN 28 12 1977 2 Roma 18 03 2007
26 2:26:52 Dire Tune ETH 19 06 1985 1 Houston, TX 14 01 2007
27 2:26:54 Irina Timofeyeva RUS 05 04 1970 4 Berlin 30 09 2007
28 2:26:56 Kum-Ok Kim PRK 09 12 1988 2 Pyongyang 08 04 2007
29 2:27:02 Lenah Jemutai Cheruiyot KEN 01 03 1973 1 Venezia 28 10 2007
30 2:27:05 Rong Chen CHN 16 06 1988 1 Beijing 21 10 2007
31 2:27:19 Magarsa Assale Tafa     1 Dubai 12 01 2007
32 2:27:20 Yingying Zhang CHN 04 01 1990 2 Beijing 21 10 2007
33 2:27:25 Rose Cheruiyot KEN 21 07 1976 2 Seoul 18 03 2007
34 2:27:35 Bruna Genovese ITA 24 09 1976 3 Tokyo 18 11 2007
35 2:27:46 Xue Bai CHN 13 12 1988 3 Beijing 21 10 2007
36 2:27:49 Alevtina Ivanova RUS 22 05 1975 1 Nagano 15 04 2007
37 2:28:16 Magdaline Chemjor KEN 12 11 1978 1 Amsterdam 21 10 2007
38 2:28:22 Gulnara Vygovskaya RUS 06 09 1980 2 Paris 15 04 2007
39 2:28:25 Bun-Hui Jo PRK 29 11 1979 3 Pyongyang 08 04 2007
40 2:28:27 Anne Kosgei KEN 1980 2 Venezia 28 10 2007
41 2:28:33 Naoko Sakamoto JPN 14 11 1980 5 Berlin 30 09 2007
42 2:28:37 Lidiya Grigoryeva RUS 21 01 1974 4 New York City, NY 04 11 2007
43 2:28:39 Akemi Ozaki JPN 12 10 1977 4 Tokyo 18 11 2007
44 2:28:47 Yingying Zhu CHN 18 08 1988 4 Beijing 21 10 2007
45 2:28:49 Yasuko Hashimoto JPN 12 08 1975 1 Nagoya 11 03 2007
46 2:28:53 Helena Javornik SLO 26 03 1966 3 Roma 18 03 2007
47 2:28:54 Un-Suk Pyo PRK 13 06 1981 4 Pyongyang 08 04 2007
48 2:28:54 Christelle Daunay FRA 05 12 1974 3 Paris 15 04 2007
49 2:28:55 Harumi Hiroyama JPN 02 09 1968 2 Nagoya 11 03 2007
50 2:28:56 Melanie Kraus GER 24 10 1974 1 Frankfurt 28 10 2007
51 2:28:59 Dire Tune     2 Nagano 15 04 2007
52 2:29:01 Silviya Skvortsova RUS 16 11 1974 1 Las Vegas, NV 02 12 2007
53 2:29:08 Atsede Baysa ETH 16 04 1987 1 Istanbul 28 10 2007
54 2:29:08 Catherine Ndereba KEN 21 07 1972 5 New York City, NY 04 11 2007
55 2:29:11 Asha Gigi ETH 15 10 1973 4 Paris 15 04 2007
56 2:29:12 Svetlana Zakharova RUS 15 09 1970 2 Frankfurt 28 10 2007
57 2:29:12 Kirsten Melkevik Otterbu NOR 29 05 1970 3 Frankfurt 28 10 2007
58 2:29:14 Ayelech Worku ETH 12 06 1979 1 Hamburg 29 04 2007
59 2:29:16 Bun-Hui Jo     5 Beijing 21 10 2007
60 2:29:18 Lidiya Grigoryeva     1 Boston, MA 16 04 2007
61 2:29:20 Alina Ivanova RUS 16 03 1969 1 Dublin 29 10 2007
62 2:29:22 Rose Kerubo Nyangacha KEN 28 10 1976 2 Hamburg 29 04 2007
63 2:29:24 Takami Ominami JPN 15 11 1975 3 Nagoya 11 03 2007
64 2:29:24 Anikó Kálovics HUN 13 05 1977 1 Torino 15 04 2007
65 2:29:27 Weiwei Sun CHN 13 01 1985 2 Xiamen 31 03 2007
66 2:29:28 Lidia Simon ROM 04 09 1973 1 Shanghai 25 11 2007
67 2:29:32 Eun-Jung Lee KOR 21 04 1981 1 Seoul 04 11 2007
68 2:29:33 Hellen Cherono Koskei KEN 22 02 1984 3 Seoul 18 03 2007
69 2:29:33 Sabrina Mockenhaupt GER 06 12 1980 1 Köln 07 10 2007
70 2:29:34 Miki Ohira JPN 28 06 1981 4 Nagoya 11 03 2007
71 2:29:34 Lyubov Morgunova RUS 14 01 1971 3 Nagano 15 04 2007
72 2:29:37 Luminita Zaituc GER 09 10 1968 1 Düsseldorf 06 05 2007
73 2:29:38 Julia Mumbi Muraga KEN 25 01 1985 5 Nagoya 11 03 2007
74 2:29:41 Jemima Jelagat Sumgong KEN 1985 4 Frankfurt 28 10 2007
75 2:29:43 Lenah Jemutai Cheruiyot     4 Roma 18 03 2007
76 2:29:47 Benita Johnson AUS 06 05 1979 7 London 22 04 2007
77 2:29:58 Jelena Prokopcuka     2 Boston, MA 16 04 2007
78 2:30:08 Chol-Sun Kim PRK   5 Pyongyang 08 04 2007
79 2:30:08 Mary Ptikany KEN 1978 1r1 Essen 13 05 2007
80 2:30:09 Haruko Okamoto JPN 19 08 1974 6 Nagoya 11 03 2007
81 2:30:09 Luminita Zaituc     5 Frankfurt 28 10 2007
82 2:30:10 Dorota Gruca POL 05 12 1970 2 Amsterdam 21 10 2007
83 2:30:11 Hellena Loshanyang Kiprop     2 Rotterdam 15 04 2007
84 2:30:12 Tabitha Tsatsa ZIM 18 09 1972 4 Seoul 18 03 2007
85 2:30:14 Beáta Rakonczai HUN 25 06 1977 2 Houston, TX 14 01 2007
86 2:30:15 Ayelech Worku     3 Amsterdam 21 10 2007
87 2:30:16 Madaí Pérez MEX 02 02 1980 3 Boston, MA 16 04 2007
88 2:30:24 Hiromi Ominami     5 Tokyo 18 11 2007
89 2:30:30 Shiru Deriba ETH   4 Amsterdam 21 10 2007
90 2:30:31 Natalya Volgina RUS 15 03 1977 5 Roma 18 03 2007
91 2:30:34 Yuko Manabe JPN 08 02 1979 7 Nagoya 11 03 2007
92 2:30:35 Vincenza Sicari ITA 19 03 1979 1 Padova 22 04 2007
93 2:30:37 Catherine Ndereba     1 Osaka 02 09 2007
94 2:30:38 Melanie Kraus     2 Düsseldorf 06 05 2007
95 2:30:40 Liza Hunter-Galvan NZL 25 06 1969 5 Amsterdam 21 10 2007
96 2:30:43 Yuri Kano     1 Sapporo 09 09 2007
97 2:30:43 Hayley Haining GBR 06 03 1972 6 Berlin 30 09 2007
98 2:30:44 Liz Yelling GBR 05 12 1974 8 London 22 04 2007
99 2:30:45 Chunxiu Zhou     2 Osaka 02 09 2007
100 2:30:46 Beatrice Omwanza KEN 24 02 1974 3 Hamburg 29 04 2007
101 2:30:55 Reiko Tosa JPN 11 06 1976 3 Osaka 02 09 2007
102 2:30:56 Workenesh Tola ETH 06 06 1977 5 Seoul 18 03 2007
103 2:31:01 Hitomi Niiya JPN 26 02 1988 1 Tokyo 18 02 2007
104 2:31:02 Alevtina Biktimirova RUS 10 09 1982 3 Rotterdam 15 04 2007
105 2:31:04 Kazue Ogoshi JPN 02 03 1981 4 Osaka 28 01 2007
106 2:31:08 Mika Okunaga JPN 27 10 1982 8 Nagoya 11 03 2007
107 2:31:10 Malgorzata Sobanska POL 25 04 1969 2 Istanbul 28 10 2007
108 2:31:12 Irene Jerotich KEN 1982 5 Paris 15 04 2007
109 2:31:12 Olga Glok RUS 16 12 1982 3 Istanbul 28 10 2007
110 2:31:13 Zivilé Balciünaité LTU 03 04 1979 4 Hamburg 29 04 2007
111 2:31:14 Shujing Zhang CHN 13 09 1978 3 Xiamen 31 03 2007
112 2:31:14 Un-Suk An PRK   6 Pyongyang 08 04 2007
113 2:31:16 Maria Elena Valencia MEX 25 05 1983 1 Torreón 04 03 2007
114 2:31:21 Xiaolin Zhu     4 Osaka 02 09 2007
115 2:31:25 Leila Aman ETH 24 11 1977 5 Hamburg 29 04 2007
116 2:31:26 Lidia Simon     5 Osaka 02 09 2007
117 2:31:29 Xin Zhang CHN 08 06 1989 6 Beijing 21 10 2007
118 2:31:31 Marisa Barros POR 25 02 1980 1 Porto 21 10 2007
119 2:31:33 Rose Kerubo Nyangacha     7 Berlin 30 09 2007
120 2:31:35 Yuka Ezaki JPN 20 10 1981 5 Osaka 28 01 2007
121 2:31:37 Tomoko Shimokawa JPN 21 11 1986 9 Nagoya 11 03 2007
122 2:31:40 Kiyoko Shimahara JPN 22 12 1976 6 Osaka 02 09 2007
123 2:31:41 Leonor Carneiro POR 18 05 1978 8 Berlin 30 09 2007
124 2:31:42 Larisa Zyuz'ko RUS 27 04 1969 2 Dublin 29 10 2007
125 2:31:43 Zekiros Adanech ETH 26 03 1982 1 Tempe, AZ 14 01 2007
126 2:31:57 Lioudmila Kortchaguina CAN 26 07 1971 1 Ottawa 27 05 2007

MEILLEURS TEMPS MASCULINS 2007

AUTRES STATISTIQUES